User: anonymous   Login
Location: Franzen
(48.6167°N, 15.3833°E)
Time: 13:12:27
(UTC+00:00)
Language:

Meteor 1-27 - Orbit

View from above orbital plane
View from above orbital plane
View from above satellite
View from above satellite

Ground track
Ground track

The orbit data is extracted from the following two-line orbital elements,

1 09903U 77024A   21173.86790290 -.00000088  00000-0 -58847-4 0  9990
2 09903  81.2504 100.4286 0038806 107.2185 253.3238 14.08269184271305
Epoch (UTC): 22 June 2021 20:49:46
Eccentricity: 0.0038806
inclination: 81.2504°
perigee height: 837 km
apogee height: 893 km
right ascension of ascending node: 100.4286°
argument of perigee: 107.2185°
revolutions per day: 14.08269184
mean anomaly at epoch: 253.3238°
orbit number at epoch: 27130

The dashed part of the orbit path shows where the satellite is in the earth's shadow,  

DLR